IK0AOC Weather Reports


time (UTC)temp
C
wind
direction
speed
KPH
gust
KPH
rain 1hr
cm
rain 24hr
cm
rain mn
cm
humidity
%
barometer
mb
20260507073505 18 99 8.0 19.3 0.00 0.13 0.05 70 1013.9
20260507073008 20 113 1.6 12.9 0.00 0.13 0.05 71 1013.8
20260507072505 19 188 1.6 8.0 0.00 0.13 0.05 71 1013.8
20260507070505 18 127 0.0 1.6 0.00 0.13 0.05 74 1014.0
20260507070011 18 139 0.0 11.3 0.00 0.13 0.05 78 1013.9
20260507065005 18 134 0.0 12.9 0.00 0.13 0.05 76 1013.9
20260507064504 18 202 0.0 4.8 0.00 0.13 0.05 76 1013.9
20260507064006 18 204 1.6 12.9 0.00 0.13 0.05 76 1013.9
20260507063008 17 94 0.0 0.0 0.00 0.13 0.05 79 1013.8
20260507062505 17 92 0.0 4.8 0.00 0.13 0.05 78 1013.7
20260507062004 17 63 0.0 0.0 0.00 0.13 0.05 80 1013.6
20260507061005 17 40 0.0 0.0 0.00 0.13 0.05 82 1013.6
20260507060505 16 40 0.0 0.0 0.00 0.13 0.05 83 1013.6
20260507060008 16 40 0.0 8.0 0.00 0.13 0.05 84 1013.6
20260507055506 16 43 0.0 9.7 0.00 0.13 0.05 85 1013.5
20260507053008 15 46 0.0 4.8 0.00 0.13 0.05 87 1013.4
20260507051505 15 40 0.0 0.0 0.00 0.15 0.05 89 1013.4
20260507050008 15 45 0.0 8.0 0.00 0.15 0.05 90 1013.3
20260507043505 14 52 1.6 11.3 0.00 0.15 0.05 90 1013.3
20260507042005 14 51 0.0 0.0 0.00 0.15 0.05 90 1013.3
20260507041005 14 28 14.5 24.1 0.00 0.15 0.05 90 1013.2
20260507040008 14 42 1.6 16.1 0.00 0.15 0.05 91 1013.2
20260507035004 14 49 4.8 11.3 0.00 0.15 0.05 91 1013.2
20260507033007 14 63 0.0 8.0 0.00 0.15 0.05 91 1013.3
20260507032004 14 42 0.0 8.0 0.00 0.15 0.05 91 1013.3
20260507030504 13 51 0.0 19.3 0.00 0.15 0.05 91 1013.3
20260507025505 13 28 12.9 29.0 0.00 0.15 0.05 91 1013.2
20260507024504 14 31 22.5 38.6 0.03 0.15 0.05 91 1013.2
20260507024005 14 37 14.5 29.0 0.03 0.15 0.05 91 1013.2
20260507023007 14 38 19.3 32.2 0.05 0.15 0.05 91 1013.2
20260507022006 14 39 9.7 29.0 0.05 0.15 0.05 91 1013.2
20260507021505 14 52 9.7 29.0 0.05 0.15 0.05 91 1013.2
20260507021006 14 42 14.5 25.7 0.05 0.15 0.05 91 1013.3
20260507015005 14 49 11.3 25.7 0.05 0.15 0.05 90 1013.3
20260507013505 14 36 0.0 16.1 0.05 0.15 0.05 90 1013.3
20260507013008 14 36 8.0 20.9 0.03 0.13 0.03 90 1013.3
20260507012506 14 35 8.0 19.3 0.03 0.13 0.03 90 1013.1
20260507010505 14 40 12.9 20.9 0.00 0.10 0.00 89 1013.1
20260507010008 14 43 8.0 19.3 0.00 0.10 0.00 89 1013.3
20260507005506 14 59 1.6 8.0 0.00 0.10 0.00 89 1013.3
20260507004006 14 59 0.0 0.0 0.00 0.10 0.00 89 1013.4
20260507003505 14 59 0.0 0.0 0.00 0.10 0.00 89 1013.4
20260507002005 14 71 1.6 4.8 0.00 0.10 0.00 90 1013.2
20260507001506 14 71 3.2 14.5 0.00 0.10 0.00 89 1013.3
20260507000505 14 104 4.8 27.4 0.00 0.10 0.00 90 1013.2
20260507000008 14 99 11.3 49.9 0.00 0.10 0.00 90 1013.2
20260506235506 15 67 3.2 24.1 0.00 0.10 0.00 90 1013.4
20260506234505 15 123 4.8 29.0 0.00 0.10 0.00 89 1013.5
20260506234005 15 163 3.2 33.8 0.00 0.10 0.00 89 1013.5
20260506233008 15 131 19.3 51.5 0.00 0.10 0.00 88 1013.5
20260506232005 15 136 16.1 45.1 0.00 0.10 0.00 88 1013.4
20260506230505 15 117 9.7 35.4 0.00 0.10 0.00 85 1013.4
20260506230008 15 140 19.3 41.8 0.00 0.10 0.00 84 1013.3
20260506225505 15 121 6.4 19.3 0.00 0.10 0.00 82 1013.3
20260506223504 16 136 6.4 24.1 0.00 0.10 0.00 81 1013.2
20260506223007 16 116 4.8 20.9 0.00 0.10 0.00 81 1013.2
20260506222505 16 127 4.8 12.9 0.00 0.10 0.00 82 1013.2
20260506222005 16 134 11.3 33.8 0.00 0.10 0.00 82 1013.2
20260506221006 16 171 1.6 12.9 0.00 0.10 0.00 83 1013.2
20260506220505 16 140 3.2 20.9 0.00 0.10 0.00 83 1013.2
20260506220008 16 123 4.8 25.7 0.00 0.10 0.00 84 1013.2
20260506215505 16 157 4.8 22.5 0.00 0.10 0.10 84 1013.2
20260506213504 16 151 1.6 25.7 0.03 0.10 0.10 84 1013.3
20260506213004 16 129 3.2 24.1 0.03 0.10 0.10 85 1013.3
20260506212005 15 145 4.8 22.5 0.05 0.10 0.10 85 1013.3
20260506211005 15 140 8.0 27.4 0.05 0.10 0.10 86 1013.3
20260506210505 16 155 9.7 35.4 0.05 0.10 0.10 86 1013.3
20260506210004 15 156 8.0 27.4 0.05 0.10 0.10 86 1013.4
20260506205005 16 142 4.8 19.3 0.05 0.10 0.10 85 1013.4
20260506203504 16 149 9.7 22.5 0.05 0.08 0.08 84 1013.5
20260506203005 16 167 4.8 22.5 0.05 0.08 0.08 84 1013.5
20260506200505 16 156 3.2 24.1 0.03 0.05 0.05 82 1013.4
20260506194005 17 178 6.4 20.9 0.00 0.05 0.05 77 1013.4
20260506193504 17 136 8.0 33.8 0.00 0.05 0.05 76 1013.3
20260506192504 17 150 11.3 32.2 0.00 0.05 0.05 74 1013.3
20260506192004 17 135 11.3 46.7 0.00 0.05 0.05 73 1013.3
20260506190008 17 156 11.3 29.0 0.00 0.05 0.05 71 1013.0
20260506185004 17 148 4.8 25.7 0.00 0.05 0.05 71 1012.8
20260506184005 17 129 9.7 27.4 0.00 0.05 0.05 71 1012.8
20260506182505 17 151 9.7 41.8 0.00 0.05 0.05 73 1012.7
20260506182005 17 145 8.0 27.4 0.00 0.05 0.05 74 1012.7
20260506181504 17 132 4.8 22.5 0.00 0.05 0.05 74 1012.7
20260506181005 17 168 0.0 32.2 0.00 0.05 0.05 75 1012.7
20260506180008 18 149 4.8 19.3 0.00 0.05 0.05 75 1012.8
20260506174504 18 158 3.2 22.5 0.00 0.05 0.05 75 1012.7
20260506174005 18 147 3.2 25.7 0.00 0.05 0.05 74 1012.7
20260506173504 18 170 16.1 35.4 0.00 0.05 0.05 74 1012.7
20260506173008 18 150 4.8 19.3 0.00 0.05 0.05 75 1012.7
20260506170505 17 166 16.1 41.8 0.00 0.05 0.05 76 1012.8
20260506170008 18 167 14.5 41.8 0.00 0.05 0.05 76 1012.8
20260506165506 17 165 14.5 41.8 0.00 0.05 0.05 76 1012.9
20260506165006 18 176 8.0 35.4 0.00 0.05 0.05 76 1012.9
20260506164505 18 178 6.4 37.0 0.00 0.05 0.05 76 1012.8
20260506163505 18 165 12.9 45.1 0.00 0.05 0.05 76 1013.0
20260506163009 18 184 14.5 41.8 0.00 0.05 0.05 75 1013.0
20260506162506 18 184 14.5 37.0 0.00 0.05 0.05 74 1012.9
20260506154505 18 148 20.9 37.0 0.00 0.05 0.05 72 1012.9
20260506153505 18 170 19.3 40.2 0.00 0.05 0.05 72 1013.1
20260506153008 18 170 17.7 41.8 0.00 0.05 0.05 71 1013.0
20260506152005 18 160 17.7 35.4 0.00 0.05 0.05 72 1012.9
20260506151505 18 148 8.0 24.1 0.00 0.05 0.05 73 1012.9
20260506145505 18 180 16.1 46.7 0.00 0.05 0.05 75 1013.1
20260506144505 18 176 29.0 77.2 0.00 0.05 0.05 72 1012.9
20260506144006 18 169 32.2 64.4 0.00 0.05 0.05 71 1012.9
20260506142505 18 136 16.1 74.0 0.00 0.05 0.05 73 1013.1
20260506142005 18 161 16.1 45.1 0.00 0.05 0.05 73 1013.0
20260506141006 18 166 27.4 59.5 0.00 0.05 0.05 72 1013.1
20260506140505 18 148 20.9 59.5 0.00 0.05 0.05 71 1013.1
20260506140008 19 143 29.0 64.4 0.00 0.05 0.05 71 1013.1
20260506135004 19 163 32.2 82.1 0.00 0.05 0.05 71 1013.1
20260506132505 19 197 27.4 64.4 0.00 0.05 0.05 70 1013.3
20260506132005 19 164 20.9 59.5 0.00 0.05 0.05 68 1013.3
20260506131504 19 129 27.4 78.9 0.00 0.05 0.05 69 1013.3
20260506130505 19 182 30.6 74.0 0.00 0.05 0.05 69 1013.4
20260506125005 20 175 8.0 56.3 0.00 0.05 0.05 67 1013.2
20260506124006 20 224 22.5 53.1 0.00 0.05 0.05 68 1013.3
20260506123505 20 188 9.7 53.1 0.00 0.05 0.05 67 1013.3
20260506123008 20 180 4.8 49.9 0.00 0.05 0.05 66 1013.3
20260506122506 20 170 22.5 56.3 0.00 0.05 0.05 65 1013.3
20260506121505 20 180 35.4 78.9 0.00 0.05 0.05 63 1013.3
20260506120008 20 191 16.1 72.4 0.00 0.05 0.05 61 1013.4
20260506115505 20 185 37.0 78.9 0.00 0.05 0.05 61 1013.3
20260506114505 20 180 29.0 93.3 0.00 0.05 0.05 62 1013.5
20260506114007 20 177 41.8 90.1 0.00 0.05 0.05 62 1013.3
20260506113505 20 203 38.6 85.3 0.00 0.05 0.05 62 1013.3
20260506113008 20 172 27.4 66.0 0.00 0.05 0.05 63 1013.3
20260506112505 20 167 38.6 69.2 0.00 0.05 0.05 62 1013.3
20260506105005 20 192 30.6 59.5 0.00 0.05 0.05 61 1013.5
20260506104504 20 189 48.3 85.3 0.00 0.05 0.05 58 1013.5
20260506104005 21 202 22.5 62.8 0.00 0.05 0.05 59 1013.5
20260506101005 20 164 35.4 85.3 0.00 0.05 0.05 52 1013.2
20260506100504 20 148 29.0 56.3 0.00 0.05 0.05 54 1013.2
20260506100008 21 164 14.5 59.5 0.00 0.05 0.05 57 1013.3
20260506095505 20 146 16.1 57.9 0.00 0.05 0.05 57 1013.4
20260506094504 20 164 25.7 69.2 0.00 0.05 0.05 58 1013.3
20260506094005 19 167 37.0 70.8 0.00 0.05 0.05 58 1013.3
20260506093007 19 157 37.0 74.0 0.00 0.05 0.05 62 1013.2
20260506092505 19 121 17.7 69.2 0.00 0.05 0.05 63 1013.2
20260506092005 19 134 19.3 66.0 0.00 0.05 0.05 65 1013.1
20260506091005 19 156 27.4 56.3 0.00 0.05 0.05 64 1013.1
20260506085004 18 127 27.4 69.2 0.00 0.05 0.05 68 1013.0
20260506084504 18 160 35.4 59.5 0.00 0.05 0.05 68 1013.0